Location: ?????????
(44.2517°N, 135.2292°E)
Time: 07:03:24
(UTC+00:00)

Cosmos 2360 Rocket - Pass Details

Date: 19 May 2025
Orbit: 834 x 842 km, 71.0° (Epoch: 15 June)

Event Time Altitude Azimuth Distance (km) Brightness Sun altitude
Rises 16:26:24 0° 321° (NW) 3,390 5.7 -22.5°
Reaches altitude 10° 16:29:28 10° 304° (NW) 2,451 4.7 -22.3°
Enters shadow 16:32:44 19° 269° (W) 1,878 3.8 -22.1°
